www.pogodaiklimat.ru

Погода и климат >> Архив погоды >> Саудовская Аравия >> Rafha


ПОГОДА в Rafha

  • Прогноз погоды в Rafha
  • Монитор погоды в Rafha
  • Климат города

АРХИВ ПОГОДЫ в Rafha

Время (UTC), дата Ветер
(напр.,м/с)
 
Видим.   Явления Облачность Т
(С)
Тd
(С)
f
(%)
Тe
(С)
Тes
(С)
Комфортность P
(гПа)
Po
(гПа)
Тmin
(С)
Tmax
(С)
R
(мм)
R24
(мм)
S
(см)
15 9.10 Ю 3 10 км 3/0
[Ci fib]
+35.4 -4.0 8 +31 +31 жарко 1007.4 958.9
18 9.10 Ю 4 10 км ясно +29.6 -5.0 10 +26 +26 жарко 1008.4 959.9 +41.1
21 9.10 Ю 5 10 км ясно +28.8 -4.0 11 +26 +26 жарко 1007.7 959.8
00 10.10 Ю 3 10 км ясно +26.6 -4.0 13 +24 +24 комфорт 1007.3 959.3
03 10.10 Ю 2 10 км ясно +23.8 -4.0 15 +22 +22 комфорт 1008.9 960.2
06 10.10 Ю 7 10 км ясно +34.1 -1.0 11 +31 +32 жарко 1010.1 961.7 +23.4
09 10.10 Ю 8 10 км ясно +39.7 +1.0 9 +36 +38 очень
жарко
1009.0 961.0
12 10.10 Ю 9 10 км ясно +40.0 0.0 8 +36 +37 очень
жарко
1006.6 958.6
15 10.10 Ю 5 10 км ясно +35.7 -5.0 7 +31 +31 жарко 1007.7 959.1
18 10.10 Ю 4 10 км ясно +29.6 -5.0 10 +26 +26 жарко 1008.6 960.3 +40.5
21 10.10 Ю 4 10 км ясно +27.1 -4.0 13 +24 +24 комфорт 1008.3 960.2
00 11.10 Ю 2 10 км ясно +24.2 -5.0 14 +22 +22 комфорт 1007.9 959.7
03 11.10 С 1 10 км ясно +25.1 -4.0 14 +23 +23 комфорт 1009.5 960.9
06 11.10 З 2 10 км ясно +30.0 0.0 14 +27 +33 жарко 1010.7 962.0 +24.0
09 11.10 Ю 4 10 км ясно +37.4 -1.0 9 +34 +42 очень
жарко
1009.2 960.9
12 11.10 Ю 7 10 км ясно +39.8 -1.0 8 +36 +38 очень
жарко
1007.9 959.6
15 11.10 Ю 3 10 км 4/0
[Ac trans]
+36.3 -3.0 8 +32 +32 жарко 1006.8 958.4
18 11.10 ЮВ 2 10 км 4/0
[Ac trans]
+36.6 -1.0 9 +33 +33 жарко 1007.7 959.7 +39.8
21 11.10 Ю 2 10 км 4/0
[Ac trans]
+28.6 -3.0 13 +26 +26 жарко 1007.8 959.7
00 12.10 Ю 1 10 км ясно +24.9 -4.0 14 +23 +23 комфорт 1007.5 959.3
03 12.10 штиль 0 10 км 4/0
[Ac trans]
+27.0 -3.0 14 +24 +24 комфорт 1008.6 960.4
06 12.10 Ю 5 10 км 6/0
[Ac As]
+32.5 -1.0 12 +29 +31 жарко 1009.6 961.6 +24.6
09 12.10 Ю 10 10 км {метель} 6/0
[Ac As]
+38.4 +2.0 10 +35 +35 очень
жарко
1008.7 960.6
12 12.10 Ю 6 10 км ясно +39.9 +1.0 9 +36 +39 очень
жарко
1007.3 959.1
15 12.10 Ю 7 10 км 6/0
[Ac As]
+36.7 -2.0 9 +33 +33 жарко 1006.5 958.3
18 12.10 ЮВ 5 10 км 6/0
[Ac As]
+32.1 -3.0 10 +28 +28 жарко 1008.9 960.5 +39.9
21 12.10 СВ 4 6000 м пыль 6/5 1200 м
[Cu med, cong Ac As]
+33.8 -1.0 11 +30 +30 жарко 1008.3 960.6
00 13.10 В 8 3000 м пыльный позёмок {метель} 6/5 1200 м
[Cu med, cong Ac As]
+29.9 +1.0 16 +27 +27 жарко 1008.9 961.0
03 13.10 В 8 8000 м пыльный позёмок {метель} 6/5 1200 м
[Cu med, cong Ac trans]
+28.5 +3.0 19 +27 +27 жарко 1010.0 961.7
06 13.10 В 8 9000 м пыльный позёмок {метель} 5/4 1200 м
[Cu med, cong Ac trans]
+31.1 +3.0 17 +29 +29 жарко 1012.0 963.5 +27.7
09 13.10 ЮВ 6 10 км 3/3 1200 м
[Cu hum]
+37.4 0.0 10 +34 +38 очень
жарко
1010.2 962.4
12 13.10 Ю 5 10 км 5/3 1200 м
[Cu hum Ac trans]
+38.5 -1.0 8 +35 +37 очень
жарко
1008.6 960.8
15 13.10 ЮВ 5 10 км 6/5 1200 м
[Sc Ac As]
+35.2 -1.0 10 +31 +31 жарко 1008.9 960.6
18 13.10 ЮВ 5 10 км 4/4 1200 м
[Cu hum]
+31.0 0.0 14 +28 +28 жарко 1010.0 961.5 +38.5
21 13.10 Ю 3 10 км 6/6 1200 м
[Sc Ac trans]
+33.2 0.0 12 +30 +30 жарко 1010.6 962.7
00 14.10 ЮВ 3 10 км 5/5 1200 м
[Cu med, cong]
+27.0 -3.0 14 +24 +24 комфорт 1011.5 963.2
03 14.10 ЮВ 4 10 км 4/0
[Ac trans]
+24.3 0.0 20 +23 +23 комфорт 1012.3 963.5
06 14.10 Ю 7 10 км 4/0
[Ac trans]
+32.0 0.0 13 +29 +30 жарко 1012.1 963.6 +24.0
09 14.10 Ю 7 6000 м пыльный позёмок {метель} 4/0
[Ac trans]
+38.0 0.0 9 +34 +37 очень
жарко
1010.3 962.5
12 14.10 ЮЗ 6 10 км 6/3 1200 м
[Cu hum Ac trans]
+37.5 0.0 9 +34 +35 очень
жарко
1009.0 960.7
15 14.10 Ю 4 10 км 5/3 1200 м
[Cu hum Ac trans]
+35.5 0.0 11 +32 +32 жарко 1008.9 960.3
18 14.10 Ю 4 10 км ясно +29.7 -2.0 13 +27 +27 жарко 1009.6 961.1 +39.0
21 14.10 Ю 3 10 км 5/5 1200 м
[Cu med, cong]
+30.4 -2.0 12 +27 +27 жарко 1009.1 961.1
00 15.10 Ю 3 10 км 5/5 1200 м
[Cu med, cong]
+27.2 -2.0 15 +25 +25 комфорт 1009.2 960.9
03 15.10 ЮВ 3 10 км 5/5 1200 м
[Cu med, cong]
+24.1 -3.0 16 +22 +22 комфорт 1009.6 960.9
06 15.10 ЮЗ 7 10 км 4/0
[Ac trans]
+31.1 -3.0 11 +28 +29 жарко 1012.0 963.3 +23.8
09 15.10 ЮЗ 8 8000 м пыльный позёмок {метель} 6/3 1200 м
[Cu hum Ac trans]
+38.1 -2.0 8 +34 +36 очень
жарко
1010.4 962.4
12 15.10 Ю 5 10 км 8/4 1200 м
[Cu hum Ac trans]
+37.7 -2.0 8 +34 +35 очень
жарко
1009.9 961.6
15 15.10 Ю 3 10 км 4/0
[Ac trans]
+33.0 -2.0 10 +29 +29 жарко 1010.9 962.1
18 15.10 Ю 5 10 км 6/4 1200 м
[Cu med, cong Ac trans]
+29.0 -4.0 11 +26 +26 жарко 1011.9 962.9 +38.0
21 15.10 Ю 8 10 км 5/0
[Ac trans]
+28.4 +6.0 24 +27 +27 жарко 1011.1 962.9
00 16.10 Ю 7 4000 м пыльный позёмок {метель} 5/0
[Ac trans]
+25.4 +6.0 29 +25 +25 комфорт 1010.2 961.8
03 16.10 Ю 7 10 км 4/0
[Ac trans]
+25.9 -4.0 14 +24 +24 комфорт 1011.3 962.5
06 16.10 ЮЗ 6 10 км 4/0
[Ac trans]
+30.0 -5.0 10 +26 +28 жарко 1012.7 963.8 +24.3
09 16.10 ЮЗ 8 6000 м пыльный позёмок {метель} 4/0
[Ac trans]
+37.4 -2.0 8 +33 +35 жарко 1010.6 962.3

 

Местоположение метеостанции Rafha (Саудовская Аравия): широта 29.62 долгота 43.48 высота над уровнем моря 444 м.

В архиве по умолчанию представлена погода в Rafha за последнюю неделю. Архивные данные за месяц целиком и за предыдущие месяцы, начиная с января 2011 года, Вы можете получить, выбрав интересующий диапазон дат из раскрывающегося списка и нажав кнопку "Ввод!".


*Определитесь, кто Вы:
робот инопланетянин человек

Внимание! Время в таблицах - всемирное. Для получения местного времени необходимо прибавить поправку, которая в Rafha равна 3 ч.

Смотрите также архив погоды в соседних городах и на ближайших метеорологических станциях:

Погода в Samawah (Ирак) (254 км)
Погода в Arar (Саудовская Аравия) (267 км)
Погода в Hafr Al-Batin (Саудовская Аравия) (274 км)
Погода в Najaf (Ирак) (274 км)
Погода в Al-Nukhib (Ирак) (293 км)
Погода в Al Qaisumah (Саудовская Аравия) (296 км)
Погода в Diwaniya (Ирак) (299 км)
Погода в Dawadmi (Саудовская Аравия) (300 км)
Погода в Hail (Саудовская Аравия) (300 км)
Погода в Nasiriya (Ирак) (310 км)

Пояснения к столбцам:

Ветер - указаны скорость ветра в м/с - средняя за 10 мин, порывы в срок и между сроками (в фигурных скобках) и направление, откуда дует ветер: С - северный, СВ - северо-восточный, В - восточный, ЮВ - юго-восточный, Ю - южный, ЮЗ - юго-западный, З - западный, СЗ - северо-западный.
Видимость - горизонтальная дальность видимости в метрах или километрах. При видимости от 1 до 10 км при отсутствии осадков обычно наблюдается дымка, при ухудшении видимости до 1 км и менее - туман. В сухую погоду видимость может ухудшаться дымом, пылью или мглою.
Явления - указаны атмосферные явления, наблюдавшиеся в срок или в последний час перед сроком; фигурными скобками обозначены явления, наблюдавшиеся между сроками (за 1-3 часа до срока); квадратными скобками обозначены град или гололедные отложения с указанием их диаметра в мм.
Облачность - указаны через наклонную черту общая и нижняя облачность в баллах и высота нижней границы облаков в метрах; квадратными скобками обозначены формы облаков: Ci - перистые, Cs - перисто-слоистые, Cc - перисто-кучевые, Ac - высококучевые, As - высокослоистые, Sc - слоисто-кучевые, Ns - слоисто-дождевые, Cu - кучевые, Cb - кучево-дождевые. Подробнее классификацию облаков см. в Атласе облаков (PDF).
T - Температура воздуха - температура, измеренная на высоте 2 м над землей.
Td - Температура точки росы - температура, при понижении до которой содержащийся в воздухе водяной пар достигнет насыщения.
f - Относительная влажность воздуха - влажноcть воздуха, измеренная на высоте 2 м над землей.
Te - Эффективная температура - температура, которую ощущает одетый по сезону человек в тени. Характеристика душности погоды. При расчете учитывается влияние влажности воздуха и скорости ветра на теплоощущения человека.
Tes - Эффективная температура на солнце - температура, которую ощущает человек, с поправкой на солнечный нагрев. Характеристика знойности погоды. Зависит от высоты солнца над горизонтом, облачности и скорости ветра. Ночью, в пасмурную погоду, а также при ветре 12 м/с и более поправка равна нулю.
P - Атмосферное давление - приведенное к уровню моря атмосферное давление.
Po - Атмосферное давление - измеренное на уровне метеостанции атмосферное давление.
Tmin - Минимальная температура - минимум температуры воздуха на высоте 2 м над землей.
Tmax - Максимальная температура - максимум температуры воздуха на высоте 2 м над землей.
R - Количество осадков - Количество выпавших осадков за период времени, мм. При наведении курсора мыши на число - период времени, за который выпало указанное количество осадков.
R24 - Количество осадков - Количество выпавших осадков за 24 часа, мм.
S - Снежный покров - Высота снежного покрова, см. При наведении курсора мыши на число - состояние снежного покрова и степень покрытия местности в баллах.